TimeEDT,TemperatureF,Dew PointF,Humidity,Sea Level PressureIn,VisibilityMPH,Wind Direction,Wind SpeedMPH,Gust SpeedMPH,PrecipitationIn,Events,Conditions,WindDirDegrees,DateUTC
12:56 AM,66.0,63.0,90,30.19,10.0,Calm,Calm,-,N/A,,Clear,0,2013-06-20 04:56:00
1:56 AM,68.0,64.9,90,30.19,10.0,SSE,10.4,-,N/A,,Overcast,150,2013-06-20 05:56:00
2:27 AM,68.0,64.4,88,30.20,10.0,SSE,10.4,-,N/A,,Mostly Cloudy,160,2013-06-20 06:27:00
2:44 AM,68.0,64.4,88,30.20,10.0,South,9.2,-,N/A,,Mostly Cloudy,170,2013-06-20 06:44:00
2:56 AM,68.0,64.0,87,30.20,10.0,South,10.4,-,N/A,,Scattered Clouds,180,2013-06-20 06:56:00
3:33 AM,68.0,64.4,88,30.19,10.0,SSE,11.5,-,N/A,,Mostly Cloudy,160,2013-06-20 07:33:00
3:46 AM,68.0,64.4,88,30.20,10.0,South,11.5,-,N/A,,Scattered Clouds,170,2013-06-20 07:46:00
3:56 AM,68.0,63.0,84,30.20,10.0,South,10.4,-,N/A,,Partly Cloudy,170,2013-06-20 07:56:00
4:26 AM,68.0,64.4,88,30.20,10.0,South,8.1,-,N/A,,Mostly Cloudy,190,2013-06-20 08:26:00
4:56 AM,66.9,61.0,81,30.22,10.0,WSW,4.6,-,N/A,,Mostly Cloudy,250,2013-06-20 08:56:00
5:56 AM,64.9,61.0,87,30.24,10.0,West,3.5,-,N/A,,Mostly Cloudy,280,2013-06-20 09:56:00
6:56 AM,66.9,61.0,81,30.25,10.0,West,3.5,-,N/A,,Mostly Cloudy,270,2013-06-20 10:56:00
7:56 AM,68.0,62.1,81,30.26,10.0,South,6.9,-,N/A,,Mostly Cloudy,170,2013-06-20 11:56:00
8:56 AM,70.0,59.0,68,30.28,10.0,SSW,10.4,-,N/A,,Overcast,200,2013-06-20 12:56:00
9:56 AM,72.0,57.9,61,30.28,10.0,SSW,8.1,-,N/A,,Scattered Clouds,200,2013-06-20 13:56:00
10:56 AM,73.0,57.9,59,30.29,10.0,SSW,6.9,-,N/A,,Mostly Cloudy,210,2013-06-20 14:56:00
11:56 AM,75.0,57.9,55,30.29,10.0,SSW,5.8,-,N/A,,Mostly Cloudy,210,2013-06-20 15:56:00
12:56 PM,77.0,61.0,58,30.29,10.0,SSW,6.9,-,N/A,,Partly Cloudy,210,2013-06-20 16:56:00
1:56 PM,78.1,60.1,54,30.28,10.0,SSW,8.1,-,N/A,,Scattered Clouds,210,2013-06-20 17:56:00
2:56 PM,78.1,55.9,46,30.27,10.0,SSW,5.8,-,N/A,,Mostly Cloudy,200,2013-06-20 18:56:00
4:56 PM,78.1,57.0,48,30.25,10.0,SSE,9.2,-,N/A,,Scattered Clouds,150,2013-06-20 20:56:00
5:56 PM,78.1,57.0,48,30.25,10.0,SE,12.7,-,N/A,,Scattered Clouds,140,2013-06-20 21:56:00
6:56 PM,75.9,55.9,50,30.25,10.0,SSE,12.7,-,N/A,,Scattered Clouds,150,2013-06-20 22:56:00
7:56 PM,73.9,55.9,53,30.27,10.0,SSE,12.7,-,N/A,,Mostly Cloudy,150,2013-06-20 23:56:00
8:56 PM,72.0,55.9,57,30.26,10.0,SSE,11.5,-,N/A,,Mostly Cloudy,150,2013-06-21 00:56:00
9:56 PM,71.1,55.9,59,30.28,10.0,South,10.4,-,N/A,,Mostly Cloudy,170,2013-06-21 01:56:00
10:56 PM,70.0,54.0,57,30.28,10.0,South,11.5,-,N/A,,Mostly Cloudy,170,2013-06-21 02:56:00
11:56 PM,69.1,53.1,57,30.29,10.0,South,10.4,-,N/A,,Mostly Cloudy,180,2013-06-21 03:56:00